535  
NZUS93 KARX 150259  
HRRWXR  
 
CURRENT HOURLY OBSERVATIONS ACROSS  
MUCH OF THE UPPER MISSISSIPPI VALLEY  
NATIONAL WEATHER SERVICE LA CROSSE WI  
1000 PM CDT WED APR 14 2021  
 
   
..SOUTHEAST MINNESOTA
 
 
 
CITY SKY/WX TMP DP RH WIND PRES REMARKS  
ROCHESTER LGT RAIN 40 37 89 NW10 30.13S FOG WCI 33  
ROCHESTER/MAYO CLOUDY 41 37 87 NW12G17 30.14R  
WINONA MOCLDY 43 36 75 NW7 30.12S  
AUSTIN PTCLDY 39 36 87 NW13 30.14S WCI 32  
ALBERT LEA MOCLDY 37 34 87 NW10G16 30.16R WCI 30  
DODGE CENTER CLOUDY 39 36 87 W15 30.13S WCI 31  
PRESTON MOCLDY 39 34 80 NW6 30.13R  
OWATONNA CLOUDY 39 36 87 W13 30.16R WCI 32  
FARIBAULT N/A 39 37 93 W9G20 30.16R WCI 33  

 
   
..ELSEWHERE IN MINNESOTA
 
 
 
CITY SKY/WX TMP DP RH WIND PRES REMARKS  
MINNEAPOLIS CLOUDY 42 35 76 N14 30.16R  
INTNL FALLS CLOUDY 33 28 81 N9 30.23R WCI 25  
DULUTH NOT AVBL  
RED WING DRIZZLE 43 37 81 NW5 30.13S  
REDWOOD FALLS CLOUDY 34 29 82 N18G28 30.24R WCI 23  
MANKATO CLOUDY 38 33 82 NW15 30.19R WCI 29  
WORTHINGTON CLOUDY 37 31 78 N16 30.23R WCI 28  
FAIRMONT CLOUDY 37 32 82 NW16 30.21R WCI 28  

 
   
..SOUTHWEST WISCONSIN
 
 
 
CITY SKY/WX TMP DP RH WIND PRES REMARKS  
LA CROSSE PTCLDY 40 31 70 NW6 30.10S  
PRAIRIE DU CHI CLEAR 35 28 74 CALM 30.12F  
BOSCOBEL NOT AVBL  
LONE ROCK NOT AVBL  
PLATTEVILLE CLEAR 34 30 83 W6 30.11F WCI 29  
FORT MC COY N/A 34 30 85 CALM 30.09S  
MAUSTON-NEW LI MOCLDY 37 30 77 W7 30.05F WCI 31  
VIROQUA CLEAR 32 31 95 W7 30.08S WCI 26  
WIS DELLS CLOUDY 35 28 74 W7 30.06F WCI 29  

 
   
..ELSEWHERE IN WISCONSIN
 
 
 
CITY SKY/WX TMP DP RH WIND PRES REMARKS  
MILWAUKEE CLEAR 40 27 59 W5 30.04F  
MADISON MOCLDY 37 29 72 W5 30.06F WCI 33  
GREEN BAY LGT RAIN 38 35 89 W8 30.01S WCI 32  
EAU CLAIRE NOT AVBL  
BLACK RVR FLS CLEAR 33 29 88 CALM 30.08S  
MEDFORD CLOUDY 37 35 92 N9G18 30.05R WCI 30  
WAUSAU MOCLDY 39 33 79 N12 30.02R WCI 32  
WIS RAPIDS CLOUDY 37 35 92 W7 30.05S WCI 32  
MARSHFIELD NOT AVBL  
RICE LAKE CLEAR 39 34 82 N3 30.12S  

 
   
..NORTHEAST IOWA
 
 
 
CITY SKY/WX TMP DP RH WIND PRES REMARKS  
WATERLOO NOT AVBL  
DUBUQUE CLOUDY 38 27 64 N10 30.12S WCI 31  
DECORAH CLOUDY 36 32 87 CALM 30.11S  
MASON CITY PTCLDY 37 30 75 NW12 30.18R WCI 29  
CHARLES CITY CLOUDY 39 34 81 W6 30.14S WCI 35  
OELWEIN CLEAR 34 30 86 W6 30.14S WCI 29  

 
   
..ELSEWHERE IN IOWA
 
 
 
CITY SKY/WX TMP DP RH WIND PRES REMARKS  
DES MOINES CLEAR 44 31 60 N10 30.18R  
IOWA CITY CLOUDY 44 29 55 N7 30.16R  
FORT DODGE CLOUDY 41 31 67 N9G18 30.21R  
MARSHALLTOWN CLEAR 34 28 79 NW6 30.17R WCI 29  
CEDAR RAPIDS MOCLDY 39 30 70 N9 30.14R WCI 33  

 
   
..NORTHERN ILLINOIS
 
 
 
CITY SKY/WX TMP DP RH WIND PRES REMARKS  
CHICAGO-OHARE CLOUDY 42 27 55 W9 30.06F  
CHICAGO-MIDWAY CLOUDY 43 25 49 NW12 30.07F  
MOLINE CLOUDY 43 29 57 N12 30.11S  
ROCKFORD CLOUDY 42 27 55 W8 30.11F  
PEORIA CLOUDY 46 31 55 CALM 30.09F  

 
 
NOTE: "FAIR" INDICATES FEW OR NO CLOUDS BELOW 12,000 FEET WITH NO  
SIGNIFICANT WEATHER AND/OR OBSTRUCTIONS TO VISIBILITY. WIND  
SPEEDS ARE IN MILES-PER-HOUR.  
 
 
CLICK HERE TO GO TO PREVIOUS BULLETINS.

The Nexlab WI Page
The Nexlab IA Page
The Nexlab MN Page Main Text Page